This demonstration page uses our WeatherBlox Daily Observations layout. Learn more.

Left ArrowRight Arrow

Hourly Observations for April 23, 2021

Temp ( °F °C ) Dew Point ( °F °C ) Humidity (%) Winds ( mph kmh ) Pressure ( in mb ) Visibility ( mi km ) Precip ( " mm )
12:59 am 00:59 Mostly Clear 51 10.6 26 -3.3 38 38 NW 14 22 30.14 1021 10 16 0.00 0.00
1:59 am 01:59 Mostly Clear 49 9.4 27 -2.8 43 43 WNW 12 19 30.14 1021 10 16 0.00 0.00
2:59 am 02:59 Mostly Clear 46 7.8 29 -1.7 51 51 WNW 9 15 30.15 1021 10 16 0.00 0.00
3:59 am 03:59 Mostly Clear 48 8.9 30 -1.1 50 50 WNW 12 19 30.16 1021 10 16 0.00 0.00
4:59 am 04:59 Mostly Clear 47 8.3 32 0 56 56 WNW 9 15 30.17 1022 10 16 0.00 0.00
5:59 am 05:59 Mostly Clear 47 8.3 32 0 56 56 WNW 10 17 30.19 1022 10 16 0.00 0.00
6:59 am 06:59 Mostly Sunny 48 8.9 33 0.6 56 56 WNW 9 15 30.20 1023 10 16 0.00 0.00
7:59 am 07:59 Mostly Sunny 50 10 33 0.6 52 52 WNW 8 13 30.22 1023 10 16 0.00 0.00
8:59 am 08:59 Mostly Sunny 53 11.7 31 -0.6 43 43 NW 12 19 30.23 1024 10 16 0.00 0.00
9:59 am 09:59 Mostly Sunny 54 12.2 29 -1.7 38 38 WNW 12 19 30.23 1024 10 16 0.00 0.00
10:59 am 10:59 Mostly Sunny 55 12.8 27 -2.8 34 34 W 8 13 30.23 1024 10 16 0.00 0.00
11:59 am 11:59 Mostly Sunny 57 13.9 29 -1.7 34 34 VRB 7 11 30.22 1023 10 16 0.00 0.00
12:59 pm 12:59 Mostly Sunny 58 14.4 30 -1.1 35 35 W 9 15 30.18 1022 10 16 0.00 0.00
1:59 pm 13:59 Mostly Cloudy 60 15.6 30 -1.1 32 32 WSW 8 13 30.16 1021 10 16 0.00 0.00
2:59 pm 14:59 Mostly Cloudy 63 17.2 32 0 31 31 WNW 10 17 30.13 1020 10 16 0.00 0.00
3:59 pm 15:59 Mostly Cloudy 62 16.7 28 -2.2 28 28 W 7 11 30.11 1020 10 16 0.00 0.00
4:59 pm 16:59 Mostly Cloudy 63 17.2 29 -1.7 28 28 W 8 13 30.10 1019 10 16 0.00 0.00
5:59 pm 17:59 Mostly Cloudy 61 16.1 28 -2.2 29 29 WSW 8 13 30.10 1019 10 16 0.00 0.00
6:59 pm 18:59 Mostly Cloudy 60 15.6 30 -1.1 32 32 WSW 10 17 30.11 1020 10 16 0.00 0.00
7:59 pm 19:59 Mostly Cloudy 59 15 29 -1.7 32 32 SW 8 13 30.11 1020 10 16 0.00 0.00
8:59 pm 20:59 Mostly Cloudy 58 14.4 33 0.6 39 39 SSW 5 7 30.13 1020 10 16 0.00 0.00
9:59 pm 21:59 Mostly Cloudy 55 12.8 33 0.6 44 44 S 3 6 30.13 1020 10 16 0.00 0.00
10:59 pm 22:59 Partly Cloudy 49 9.4 35 1.7 59 59 S 3 6 30.13 1020 10 16 0.00 0.00
11:59 pm 23:59 Partly Cloudy 52 11.1 34 1.1 50 50 SW 6 9 30.13 1020 10 16 0.00 0.00

Powered by AerisWeather